Location: Unspecified
(50.1700°N, 6.8600°E)
Time: 09:16:36
(UTC+00:00)

Cosmos 2346 Rocket - Pass Details

Date: 24 January 2019
Orbit: 937 x 979 km, 82.9° (Epoch: 17 October)

Event Time Altitude Azimuth Distance (km) Brightness Sun altitude
Rises 04:56:26 0° 199° (SSW) 3,637 7.3 -22.3°
Reaches altitude 10° 04:58:57 10° 203° (SSW) 2,700 6.6 -21.9°
Maximum altitude 05:05:04 62° 284° (WNW) 1,093 4.4 -20.9°
Drops below altitude 10° 05:11:18 10° 4° (N) 2,740 6.8 -19.9°
Sets 05:13:53 0° 8° (N) 3,694 7.6 -19.5°
